Stations météo

réclame
Mon MeteoGroup
Aachen-Orsbach, Allemagne (10505): Température de l'air & dewpoint: 19.09.2018 23:00:00 - 25.09.2018 23:00:00 (CEST)Aachen-Orsbach, Allemagne (10505): Température de l'air 5cm & Température de l'air -5cm: 19.09.2018 23:00:00 - 25.09.2018 23:00:00 (CEST)Aachen-Orsbach, Allemagne (10505): Température de l'air -20cm & Température de l'air -100cm: 19.09.2018 23:00:00 - 25.09.2018 23:00:00 (CEST)Aachen-Orsbach, Allemagne (10505): Vitesse du vent & gusts: 19.09.2018 23:00:00 - 25.09.2018 23:00:00 (CEST)Aachen-Orsbach, Allemagne (10505): Direction du vent: 19.09.2018 23:00:00 - 25.09.2018 23:00:00 (CEST)Aachen-Orsbach, Allemagne (10505): reduced air pressure: 19.09.2018 23:00:00 - 25.09.2018 23:00:00 (CEST)Aachen-Orsbach, Allemagne (10505): visibility: 19.09.2018 23:00:00 - 25.09.2018 23:00:00 (CEST)Aachen-Orsbach, Allemagne (10505): Ensoleillement: 19.09.2018 23:00:00 - 25.09.2018 23:00:00 (CEST)Aachen-Orsbach, Allemagne (10505): Quantités de précipitations: 19.09.2018 23:00:00 - 25.09.2018 23:00:00 (CEST)
Date & Time tt [°C] td [°C] tt 5cm [°C] tt -5cm [°C] tt -20cm [°C] tt -100cm [°C] ff [km/h] ff [knt] fx [km/h] fx [knt] dd ppp [hPa] vv [km] sd [min] rr [mm]
25.09.2018 23:00:00 8,7 3,6 5,6 9,4 13,4 16,7 11 6 16 9 SE 1037,5 72 0 0,0
25.09.2018 22:00:00 8,5 4,3 5,9 10,1 13,6 16,7 12 7 14 8 SE 1038,0 49 0 0,0
25.09.2018 21:00:00 8,8 4,3 5,8 11,0 13,7 16,7 12 7 16 8 E 1037,9 54 0 0,0
25.09.2018 20:00:00 9,5 4,5 7,2 12,2 13,6 16,7 12 7 19 10 E 1037,5 64 9 0,0
25.09.2018 19:00:00 12,0 5,3 11,1 13,6 13,5 16,7 13 7 22 12 E 1037,1 59 60 0,0
25.09.2018 18:00:00 13,3 4,4 14,6 14,7 13,2 16,7 12 7 22 12 ENE 1037,0 45 60 0,0
25.09.2018 17:00:00 13,6 4,1 16,9 15,4 12,9 16,8 10 5 19 10 E 1037,5 58 53 0,0
25.09.2018 16:00:00 13,2 4,2 16,1 15,9 12,6 16,8 11 6 20 11 ENE 1038,1 75 42 0,0
25.09.2018 15:00:00 13,6 4,5 18,2 15,8 12,1 16,8 7 4 20 11 E 1038,9 31 33 0,0
25.09.2018 14:00:00 13,0 5,3 18,0 16,4 11,7 16,8 11 6 20 11 E 1039,3 47 55 0,0
25.09.2018 13:00:00 11,6 4,7 14,9 15,4 11,3 16,8 8 4 14 7 E 1039,6 50 36 0,0
25.09.2018 12:00:00 11,8 5,1 15,1 14,3 11,0 16,8 8 4 13 7 NE 1039,7 42 59 0,0
25.09.2018 11:00:00 10,5 4,8 12,5 11,9 11,0 16,8 6 3 10 5 E 1039,9 63 60 0,0
25.09.2018 10:00:00 10,7 5,1 8,2 9,1 11,0 16,8 2 1 6 4 SE 1039,3 35 60 0,0
25.09.2018 09:00:00 8,3 5,4 6,3 6,4 11,2 16,8 4 2 6 3 S 1038,8 33 60 0,0
25.09.2018 08:00:00 5,2 3,1 1,9 5,4 11,4 16,8 3 2 9 5 WSW 1038,9 34 0 0,0
25.09.2018 07:00:00 5,1 3,4 1,8 5,6 11,7 16,9 6 4 8 4 SW 1038,6 41 0 0,0
25.09.2018 06:00:00 4,9 3,7 0,6 6,0 11,9 16,9 5 3 7 4 SE 1038,5 32 0 0,0
25.09.2018 05:00:00 4,9 3,5 1,0 6,4 12,1 16,9 4 2 10 5 SSE 1038,6 39 0 0,0
25.09.2018 04:00:00 6,8 3,8 3,8 6,7 12,3 16,9 7 4 10 5 WSW 1038,5 47 0 0,0
25.09.2018 03:00:00 6,6 3,6 3,5 7,1 12,5 16,9 8 5 10 6 WSW 1038,5 43 0 0,0
25.09.2018 02:00:00 6,1 3,5 3,0 7,5 12,8 16,9 5 3 7 4 WSW 1038,6 45 0 0,0
25.09.2018 01:00:00 5,7 3,0 3,1 7,8 13,0 16,9 6 3 7 4 WSW 1038,4 49 0 0,0
25.09.2018 00:00:00 6,6 3,2 3,3 8,2 13,2 16,9 5 3 8 4 WSW 1038,2 43 0 0,0
24.09.2018 23:00:00 7,8 3,5 3,9 8,8 13,4 16,9 5 3 8 5 WNW 1037,7 52 0 0,0
24.09.2018 22:00:00 7,6 3,8 4,5 9,5 13,6 16,9 6 3 10 6 WNW 1037,2 44 0 0,0
24.09.2018 21:00:00 8,4 4,2 5,6 10,3 13,7 16,9 5 3 13 7 W 1036,5 50 0 0,0
24.09.2018 20:00:00 9,5 4,3 7,2 11,4 13,7 17,0 10 5 19 11 NW 1035,6 56 0 0,0
24.09.2018 19:00:00 10,9 6,8 9,8 12,7 13,7 17,0 12 7 19 10 WNW 1035,0 57 34 0,0
24.09.2018 18:00:00 10,5 7,6 10,5 13,1 13,6 17,0 11 6 17 9 WSW 1034,9 66 20 0,2
24.09.2018 17:00:00 9,6 7,6 9,5 13,4 13,5 17,0 12 7 23 13 WNW 1035,4 9 6 0,9
24.09.2018 16:00:00 10,2 6,7 10,9 13,7 13,4 17,0 16 9 23 12 W 1035,0 74 1 0,0
24.09.2018 15:00:00 9,9 7,3 9,8 14,9 13,1 17,0 19 10 39 21 N 1035,1 49 20 0,2
24.09.2018 14:00:00 12,7 6,2 15,2 15,5 12,8 17,0 24 13 32 17 W 1034,5 43 39 0,0
24.09.2018 13:00:00 11,6 7,5 13,5 14,4 12,6 17,0 17 9 27 14 W 1034,9 41 34 0,0
24.09.2018 12:00:00 10,2 7,7 11,4 12,8 12,5 17,0 15 8 28 15 W 1034,9 39 13 0,4
24.09.2018 11:00:00 9,9 6,3 11,2 12,3 12,4 17,0 15 8 27 15 WSW 1034,3 39 60 0,0
24.09.2018 10:00:00 8,6 5,8 8,4 10,1 12,5 17,0 18 10 24 13 WSW 1033,9 47 22 0,0
24.09.2018 09:00:00 7,9 6,2 7,5 8,4 12,7 17,0 9 5 22 12 WSW 1033,1 25 40 0,0
24.09.2018 08:00:00 6,5 5,4 5,7 7,7 12,9 17,0 13 7 16 9 W 1032,4 15 0 0,0
24.09.2018 07:00:00 6,4 5,4 5,4 7,9 13,1 17,0 13 7 19 11 WSW 1031,6 17 0 0,0
24.09.2018 06:00:00 6,2 5,4 5,3 8,2 13,2 17,1 13 7 16 9 WSW 1031,0 10 0 0,0
24.09.2018 05:00:00 6,3 5,7 5,7 8,6 13,4 17,1 10 6 18 10 W 1030,1 7 0 0,0
24.09.2018 04:00:00 6,8 6,2 6,1 9,3 13,5 17,1 12 7 23 12 W 1029,3 5 0 0,0
24.09.2018 03:00:00 7,7 7,1 7,5 9,7 13,7 17,1 15 8 21 12 W 1028,4 3,9 0 0,0
24.09.2018 02:00:00 7,7 7,1 7,2 10,0 13,8 17,1 13 7 20 11 W 1027,3 4,5 0 0,0
24.09.2018 01:00:00 8,1 7,4 7,9 10,4 13,9 17,1 15 8 23 13 W 1026,0 8 0 0,0
24.09.2018 00:00:00 8,2 7,4 8,2 10,6 14,1 17,1 17 9 24 13 W 1024,7 11 0 0,0
23.09.2018 23:00:00 8,1 7,4 8,0 10,7 14,2 17,1 14 8 22 12 W 1023,3 17 0 0,1
23.09.2018 22:00:00 8,2 7,1 8,1 10,8 14,3 17,1 12 7 26 14 WNW 1021,9 32 0 0,1
23.09.2018 21:00:00 8,3 7,1 8,2 11,1 14,5 17,1 18 10 31 17 NW 1020,3 20 0 0,3
23.09.2018 20:00:00 8,5 6,9 8,1 11,5 14,6 17,1 21 11 35 19 NNW 1018,1 23 0 0,6
23.09.2018 19:00:00 9,2 7,6 8,9 12,0 14,7 17,1 25 14 39 21 NNW 1015,6 12 0 1,6
23.09.2018 18:00:00 9,6 8,2 9,6 12,4 14,8 17,1 22 12 37 20 NNW 1013,1 33 0 0,0
23.09.2018 17:00:00 9,7 8,6 9,7 12,8 14,8 17,1 27 15 40 22 NNW 1011,5 11 0 0,0
23.09.2018 16:00:00 10,4 9,3 10,6 13,0 14,9 17,1 19 11 36 20 N 1009,9 31 0 2,0
23.09.2018 15:00:00 10,3 9,5 10,6 13,3 14,9 17,1 24 13 45 24 N 1009,2 6 0 5,7
23.09.2018 14:00:00 11,0 10,4 11,3 14,1 14,9 17,1 17 9 25 14 N 1007,0 5 0 5,6
23.09.2018 13:00:00 11,9 11,3 12,4 14,9 14,8 17,1 12 6 15 8 N 1007,9 3,0 0 0,9
23.09.2018 12:00:00 12,0 11,0 13,4 14,5 14,7 17,1 3 2 8 4 E 1009,1 3,0 0 0,7
23.09.2018 11:00:00 11,7 10,8 12,5 13,8 14,7 17,1 3 2 7 4 NNE 1010,2 2,8 0 0,6
23.09.2018 10:00:00 11,3 10,8 12,0 13,0 14,7 17,1 6 3 9 5 NNE 1010,8 2,8 0 0,5
23.09.2018 09:00:00 10,9 10,4 11,4 12,4 14,8 17,1 5 3 10 5 NE 1010,9 2,9 0 0,8
23.09.2018 08:00:00 10,6 10,2 10,9 12,1 14,8 17,1 8 4 14 7 E 1011,2 2,6 0 0,9
23.09.2018 07:00:00 10,4 10,0 10,6 12,1 14,9 17,2 12 7 17 9 E 1011,2 1,8 0 0,6
23.09.2018 06:00:00 10,3 9,9 10,5 12,0 15,0 17,2 11 6 16 9 ENE 1012,0 2,3 0 1,1
23.09.2018 05:00:00 10,2 9,8 10,4 12,0 15,1 17,2 11 6 20 11 E 1012,7 2,1 0 1,9
23.09.2018 04:00:00 10,1 9,6 10,2 12,1 15,2 17,2 15 8 18 10 E 1013,8 4,0 0 0,8
23.09.2018 03:00:00 10,1 9,5 10,1 12,2 15,3 17,2 14 7 18 10 E 1015,1 6 0 0,2
23.09.2018 02:00:00 10,1 9,5 10,2 12,3 15,4 17,2 9 5 15 8 E 1016,3 9 0 0,3
23.09.2018 01:00:00 10,2 9,1 10,0 12,4 15,5 17,2 9 5 17 9 S 1017,2 7 0 0,2
23.09.2018 00:00:00 10,1 9,1 10,0 12,5 15,6 17,2 9 5 12 7 SSE 1017,9 13 0 0,1
22.09.2018 23:00:00 9,9 9,0 9,9 12,6 15,7 17,2 7 4 9 5 ESE 1018,7 9 0 0,3
22.09.2018 22:00:00 10,0 8,9 9,9 12,7 15,9 17,2 6 3 11 6 S 1019,3 12 0 0,5
22.09.2018 21:00:00 10,1 9,0 9,8 13,0 16,0 17,2 9 5 13 7 S 1019,8 12 0 0,7
22.09.2018 20:00:00 10,0 8,5 9,7 13,4 16,0 17,2 8 4 14 8 SSW 1019,6 35 0 0,4
22.09.2018 19:00:00 10,3 8,7 10,0 14,0 16,1 17,2 11 6 21 11 WSW 1019,9 17 0 0,6
22.09.2018 18:00:00 11,0 8,6 10,8 14,7 16,1 17,2 12 7 23 12 WSW 1020,4 17 0 0,1
22.09.2018 17:00:00 11,5 8,5 11,3 14,9 16,1 17,2 18 10 26 14 W 1020,2 38 0 0,7
22.09.2018 16:00:00 11,0 9,2 10,9 15,3 16,0 17,2 21 11 31 17 W 1020,8 10 0 1,0
22.09.2018 15:00:00 10,8 9,0 10,7 16,7 15,9 17,2 28 15 48 26 W 1021,2 14 0 1,7
22.09.2018 14:00:00 15,5 6,4 16,6 17,7 15,6 17,2 23 12 35 19 WSW 1019,8 56 4 0,0
22.09.2018 13:00:00 15,5 8,0 18,4 17,9 15,5 17,2 22 12 37 20 SW 1020,3 51 37 0,0
22.09.2018 12:00:00 13,5 7,9 14,1 15,9 15,5 17,1 22 12 34 19 SW 1021,0 19 33 0,0
22.09.2018 11:00:00 11,8 7,3 12,4 14,0 15,5 17,1 23 12 35 19 SW 1021,6 36 29 0,0
22.09.2018 10:00:00 11,3 7,0 11,8 12,6 15,6 17,1 22 12 29 16 SW 1021,5 45 34 0,0
22.09.2018 09:00:00 10,0 6,7 9,8 11,7 15,8 17,1 19 10 29 16 SW 1021,2 42 0 0,0
22.09.2018 08:00:00 9,5 6,3 8,8 11,4 15,9 17,1 20 11 30 16 SSW 1021,4 41 0 0,0
22.09.2018 07:00:00 9,6 6,5 8,8 11,6 16,1 17,1 17 9 27 14 SW 1020,9 36 0 0,0
22.09.2018 06:00:00 9,3 6,2 8,6 11,7 16,3 17,1 18 10 29 15 SW 1020,4 38 0 0,0
22.09.2018 05:00:00 10,2 6,1 9,5 11,9 16,5 17,1 19 11 34 19 WSW 1019,9 40 0 0,0
22.09.2018 04:00:00 10,0 6,0 9,1 12,0 16,6 17,1 21 11 32 17 SW 1020,0 36 0 0,0
22.09.2018 03:00:00 10,2 5,9 9,1 12,2 16,8 17,1 19 10 35 19 SW 1019,7 35 0 0,0
22.09.2018 02:00:00 11,4 6,1 10,3 12,6 17,1 17,1 20 11 44 24 WSW 1019,1 38 0 0,0
22.09.2018 01:00:00 12,0 5,9 11,1 12,9 17,3 17,1 29 16 51 28 WSW 1018,2 38 0 0,0
22.09.2018 00:00:00 11,6 5,3 10,6 13,1 17,5 17,1 30 16 51 28 SW 1017,4 39 0 0,0
21.09.2018 23:00:00 12,3 4,9 11,3 13,5 17,7 17,1 31 17 53 29 WSW 1016,8 42 0 0,0
21.09.2018 22:00:00 12,7 4,5 11,7 13,8 17,9 17,1 29 15 57 31 WSW 1016,2 52 0 0,0
21.09.2018 21:00:00 13,2 3,9 12,2 14,3 18,1 17,1 31 17 55 30 WSW 1014,9 59 0 0,0
21.09.2018 20:00:00 13,6 4,0 12,6 15,1 18,2 17,1 34 18 52 28 WSW 1013,9 63 17 0,0
21.09.2018 19:00:00 14,4 4,6 14,1 15,9 18,3 17,1 31 17 61 33 WSW 1013,1 59 33 0,0
21.09.2018 18:00:00 15,3 4,8 15,8 16,7 18,4 17,1 33 18 54 29 W 1012,4 67 51 0,0
21.09.2018 17:00:00 15,0 5,1 16,0 17,1 18,5 17,1 34 18 58 31 WSW 1012,2 54 49 0,0
21.09.2018 16:00:00 14,3 4,6 14,8 17,2 18,6 17,1 40 22 61 33 WSW 1011,6 71 11 0,0
21.09.2018 15:00:00 14,1 8,0 14,4 17,6 18,6 17,1 34 18 53 28 W 1010,5 69 0 0,0
21.09.2018 14:00:00 13,3 10,1 13,7 18,2 18,7 17,1 34 19 52 28 W 1009,6 63 20 0,6
21.09.2018 13:00:00 14,8 11,5 16,1 17,7 18,8 17,1 27 14 42 23 SW 1008,4 32 13 0,0
21.09.2018 12:00:00 12,7 9,6 12,2 17,2 18,9 17,1 29 15 46 25 SW 1008,5 21 0 0,3
21.09.2018 11:00:00 12,4 11,0 12,2 17,9 18,9 17,1 34 18 69 37 W 1008,0 14 0 2,4
21.09.2018 10:00:00 19,0 11,8 18,2 18,7 19,0 17,1 38 20 64 35 SW 1004,2 34 0 0,0
21.09.2018 09:00:00 19,8 10,1 19,6 18,4 19,0 17,1 43 23 69 38 SW 1004,5 53 0 0,0
21.09.2018 08:00:00 20,5 9,0 20,0 18,3 19,1 17,1 46 25 79 43 SW 1004,3 45 0 0,0
21.09.2018 07:00:00 20,4 12,4 19,6 18,2 19,2 17,1 35 19 57 31 SSW 1004,2 49 0 0,0
21.09.2018 06:00:00 20,1 11,9 19,2 18,2 19,3 17,1 36 19 51 28 SSW 1004,8 56 0 0,0
21.09.2018 05:00:00 20,1 11,1 18,9 18,4 19,4 17,1 29 16 48 26 S 1005,9 57 0 0,0
21.09.2018 04:00:00 20,5 11,0 19,4 18,5 19,5 17,1 28 15 39 21 SSW 1007,3 55 0 0,0
21.09.2018 03:00:00 20,4 11,6 19,3 18,8 19,7 17,1 26 14 39 21 SSW 1007,9 55 0 0,0
21.09.2018 02:00:00 20,5 12,0 19,6 19,0 19,8 17,1 26 14 39 21 SSW 1008,7 49 0 0,0
21.09.2018 01:00:00 20,5 11,9 19,7 19,3 19,9 17,1 28 15 42 23 SSW 1009,3 48 0 0,0
21.09.2018 00:00:00 20,7 11,4 20,0 19,5 20,0 17,1 33 18 49 26 SSW 1010,0 57 0 0,0
20.09.2018 23:00:00 20,5 11,0 19,6 19,6 20,1 17,1 31 17 49 26 SSW 1011,0 56 0 0,0
20.09.2018 22:00:00 20,8 10,4 19,8 20,0 20,2 17,1 30 16 44 24 SSW 1011,4 57 0 0,0
20.09.2018 21:00:00 21,0 9,5 19,7 20,6 20,2 17,1 21 11 32 18 SSW 1012,1 56 0 0,0
20.09.2018 20:00:00 22,0 8,7 20,4 21,5 20,1 17,1 19 10 34 18 S 1012,6 68 0 0,0
20.09.2018 19:00:00 23,7 9,4 22,9 22,7 20,0 17,1 20 11 32 17 SSW 1013,0 59 31 0,0
20.09.2018 18:00:00 24,6 10,3 24,9 23,7 19,7 17,0 20 11 34 18 SW 1013,6 60 58 0,0
20.09.2018 17:00:00 25,0 10,3 27,0 24,2 19,4 17,0 21 12 37 20 SW 1014,3 50 60 0,0
20.09.2018 16:00:00 24,4 10,8 27,1 24,3 19,1 17,0 27 15 48 26 SW 1015,1 52 60 0,0
20.09.2018 15:00:00 23,7 11,0 26,2 24,2 18,9 17,0 31 17 48 26 SW 1015,8 53 60 0,0
20.09.2018 14:00:00 23,1 11,9 26,0 23,4 18,6 17,0 28 15 47 25 WSW 1016,8 49 60 0,0
20.09.2018 13:00:00 21,4 11,9 24,1 22,0 18,5 17,0 34 18 56 30 SW 1017,3 44 58 0,0
20.09.2018 12:00:00 20,9 12,1 22,7 21,0 18,4 17,0 35 19 49 26 SW 1017,6 36 59 0,0
20.09.2018 11:00:00 20,7 12,8 22,3 18,9 18,4 17,0 27 15 37 20 SW 1017,8 53 34 0,0
20.09.2018 10:00:00 18,8 12,3 19,2 17,8 18,5 17,0 18 10 29 16 SW 1018,0 40 47 0,0
20.09.2018 09:00:00 17,6 11,9 17,4 17,1 18,6 17,0 18 10 25 14 SSW 1018,0 44 23 0,0
20.09.2018 08:00:00 16,9 11,6 16,3 16,7 18,7 17,0 16 8 26 14 SSW 1018,0 37 0 0,0
20.09.2018 07:00:00 16,9 11,4 15,9 16,8 18,9 17,0 19 10 29 16 SSW 1018,0 37 0 0,0
20.09.2018 06:00:00 17,2 11,3 16,0 16,9 19,0 17,0 19 11 29 16 SSW 1018,1 42 0 0,0
20.09.2018 05:00:00 17,0 11,3 15,4 17,1 19,2 17,0 16 9 22 12 S 1018,2 42 0 0,0
20.09.2018 04:00:00 17,2 11,2 15,7 17,4 19,4 17,0 16 9 23 12 SSW 1018,3 41 0 0,0
20.09.2018 03:00:00 18,0 11,3 16,5 17,7 19,5 17,0 16 9 25 13 SSW 1018,0 37 0 0,0
20.09.2018 02:00:00 17,7 11,3 16,1 18,0 19,7 17,0 15 8 21 11 SSW 1018,6 40 0 0,0
20.09.2018 01:00:00 18,0 11,4 16,5 18,3 19,9 17,0 14 8 19 10 SSW 1019,0 43 0 0,0
20.09.2018 00:00:00 18,2 11,4 16,3 18,5 20,1 17,0 12 6 17 9 SSW 1019,2 37 0 0,0
19.09.2018 23:00:00 17,7 11,3 15,9 19,1 20,2 17,0 9 5 12 7 WSW 1019,0 39 0 0,0

tt = Température de l'air
td = dewpoint
tt 5cm = Température de l'air 5cm
tt -5cm = Température de l'air -5cm
tt -20cm = Température de l'air -20cm
tt -100cm = Température de l'air -100cm
ff = Vitesse du vent
fx = gusts
dd = Direction du vent
ppp = reduced air pressure
vv = visibility
sd = Ensoleillement
rr = Quantités de précipitations

stations d'obs. à proximité